WXM80 ListenWXM80 Stop

You find our weather info also at:

UK Metoffice

WeatherCloud

Weather Underground

Northeastern Weather Network

AWEKAS

Citizen Weather Observer Program (CWOP)

HAMweather, WeatherForYou, PWS Weather


Weather Underground History page Text

Daily Summary for May 28, 2017 Units:  Metric    English   Both
« Previous Day
Next Day »
Daily Weekly Monthly Yearly Custom
  High: Low: Average:
Temperature: 22.7 °C 14.1 °C 17.7 °C
Dew Point: 17.7 °C 10.9 °C 13.7 °C
Humidity: 95 % 58 % 78 %
Wind Speed: 10.1 km/h 0 km/h 2.1 km/h
Wind Gust: 18.5 km/h - -
Wind:- - SE
Pressure: 1013.4 hPa 1010.7 hPa -
Precipitation: 0 mm    
Historical Graphs
 
 
Tabular Data for May 28, 2017
Time Temperature Dew Point Pressure Wind Wind Speed Wind Gust Humidity Rainfall Rate (Hourly)
00:04 16.1 °C 14.1 °C 1012.1 hPa South 1 km/h 3.2 km/h 88 % 0 mm
00:09 16.1 °C 14.1 °C 1012.1 hPa Calm     88 % 0 mm
00:14 16.1 °C 14.1 °C 1011.7 hPa SE 0.2 km/h   88 % 0 mm
00:19 16.1 °C 14.1 °C 1011.7 hPa SE 1 km/h 3.7 km/h 88 % 0 mm
00:24 16 °C 14 °C 1011.7 hPa SE 0.3 km/h 1.6 km/h 88 % 0 mm
00:29 16 °C 14 °C 1011.4 hPa SE 1.6 km/h 7.4 km/h 88 % 0 mm
00:34 16 °C 14 °C 1011.4 hPa SE 1.4 km/h 6.4 km/h 88 % 0 mm
00:39 15.9 °C 13.9 °C 1011.4 hPa SE 0.3 km/h 1.9 km/h 88 % 0 mm
00:45 15.9 °C 13.9 °C 1011.4 hPa Calm     88 % 0 mm
00:50 15.9 °C 13.9 °C 1011.4 hPa Calm     88 % 0 mm
00:55 15.9 °C 13.9 °C 1011.7 hPa Calm   3.7 km/h 88 % 0 mm
01:00 15.8 °C 13.8 °C 1011.7 hPa SE 0.6 km/h 5.6 km/h 88 % 0 mm
01:05 15.8 °C 13.8 °C 1011.7 hPa Calm   1.6 km/h 88 % 0 mm
01:10 15.8 °C 13.8 °C 1011.7 hPa Calm     88 % 0 mm
01:15 15.8 °C 13.8 °C 1011.7 hPa Calm     88 % 0 mm
01:20 15.8 °C 13.9 °C 1011.7 hPa Calm     89 % 0 mm
01:25 15.8 °C 13.9 °C 1011.7 hPa Calm   3.7 km/h 89 % 0 mm
01:30 15.8 °C 13.9 °C 1011.7 hPa Calm   1.9 km/h 89 % 0 mm
01:35 15.8 °C 13.9 °C 1011.7 hPa Calm     89 % 0 mm
01:40 15.7 °C 13.9 °C 1011.7 hPa Calm     89 % 0 mm
01:45 15.7 °C 13.9 °C 1011.7 hPa Calm     89 % 0 mm
01:50 15.7 °C 13.9 °C 1011.7 hPa Calm   1.9 km/h 89 % 0 mm
01:55 15.7 °C 13.8 °C 1011.4 hPa Calm     89 % 0 mm
02:00 15.7 °C 13.8 °C 1011.7 hPa Calm     89 % 0 mm
02:05 15.7 °C 13.8 °C 1011.7 hPa Calm     89 % 0 mm
02:10 15.6 °C 13.8 °C 1011.4 hPa Calm     89 % 0 mm
02:15 15.6 °C 14 °C 1011.7 hPa Calm     90 % 0 mm
02:20 15.6 °C 14 °C 1011.7 hPa Calm     90 % 0 mm
02:25 15.6 °C 13.9 °C 1011.7 hPa Calm     90 % 0 mm
02:30 15.6 °C 13.9 °C 1011.7 hPa Calm     90 % 0 mm
02:35 15.6 °C 13.9 °C 1011.7 hPa Calm     90 % 0 mm
02:40 15.5 °C 13.9 °C 1012.1 hPa East 2.7 km/h 5.6 km/h 90 % 0 mm
02:45 15.5 °C 13.9 °C 1012.1 hPa Calm     90 % 0 mm
02:50 15.5 °C 13.9 °C 1012.1 hPa Calm     90 % 0 mm
02:55 15.4 °C 13.8 °C 1012.1 hPa Calm     90 % 0 mm
03:00 15.4 °C 13.8 °C 1011.7 hPa SE 0.6 km/h 5.6 km/h 90 % 0 mm
03:05 15.4 °C 13.8 °C 1011.7 hPa SE 0.8 km/h 3.7 km/h 90 % 0 mm
03:10 15.4 °C 13.8 °C 1011.7 hPa SE 1.1 km/h 6.4 km/h 90 % 0 mm
03:15 15.4 °C 13.8 °C 1011.4 hPa Calm     90 % 0 mm
03:20 15.4 °C 13.8 °C 1011.4 hPa Calm     90 % 0 mm
03:25 15.3 °C 13.7 °C 1011.4 hPa Calm     90 % 0 mm
03:28 15.3 °C 13.7 °C 1011.1 hPa Calm     90 % 0 mm
03:33 15.3 °C 13.7 °C 1011.1 hPa Calm   1.6 km/h 90 % 0 mm
03:38 15.3 °C 13.7 °C 1011.1 hPa Calm     90 % 0 mm
03:43 15.3 °C 13.8 °C 1011.1 hPa Calm     91 % 0 mm
03:48 15.2 °C 13.8 °C 1011.1 hPa Calm   3.7 km/h 91 % 0 mm
03:53 15.2 °C 13.7 °C 1011.1 hPa SE 0.6 km/h 3.2 km/h 91 % 0 mm
03:58 15.2 °C 13.7 °C 1011.1 hPa Calm     91 % 0 mm
04:03 15.1 °C 13.7 °C 1011.1 hPa SE 0.2 km/h 5.6 km/h 91 % 0 mm
04:08 15.1 °C 13.6 °C 1011.1 hPa Calm     91 % 0 mm
04:13 15 °C 13.6 °C 1011.1 hPa Calm     91 % 0 mm
04:18 15 °C 13.6 °C 1011.1 hPa Calm     91 % 0 mm
04:24 14.9 °C 13.5 °C 1010.7 hPa Calm     91 % 0 mm
04:29 14.9 °C 13.4 °C 1010.7 hPa Calm     91 % 0 mm
04:34 14.8 °C 13.4 °C 1010.7 hPa Calm     91 % 0 mm
04:39 14.8 °C 13.3 °C 1010.7 hPa Calm   1.9 km/h 91 % 0 mm
04:44 14.7 °C 13.3 °C 1011.1 hPa Calm     91 % 0 mm
04:50 14.7 °C 13.2 °C 1011.4 hPa Calm     91 % 0 mm
04:55 14.6 °C 13.2 °C 1011.7 hPa Calm   1.9 km/h 91 % 0 mm
05:00 14.6 °C 13.1 °C 1011.7 hPa Calm     91 % 0 mm
05:05 14.6 °C 13.1 °C 1011.7 hPa SSE 1.6 km/h 3.7 km/h 91 % 0 mm
05:10 14.5 °C 13.1 °C 1012.1 hPa Calm     91 % 0 mm
05:15 14.4 °C 13 °C 1011.7 hPa Calm   1.9 km/h 91 % 0 mm
05:20 14.4 °C 13 °C 1012.1 hPa SSE 0.5 km/h 3.7 km/h 91 % 0 mm
05:25 14.4 °C 13.2 °C 1011.7 hPa Calm     92 % 0 mm
05:30 14.4 °C 13.2 °C 1011.7 hPa Calm     92 % 0 mm
05:35 14.4 °C 13.1 °C 1011.7 hPa Calm     92 % 0 mm
05:40 14.4 °C 13.1 °C 1011.7 hPa Calm     92 % 0 mm
05:45 14.3 °C 13.1 °C 1011.7 hPa Calm     92 % 0 mm
05:50 14.3 °C 13 °C 1011.7 hPa Calm     92 % 0 mm
05:55 14.3 °C 13 °C 1011.7 hPa Calm     92 % 0 mm
06:01 14.2 °C 12.9 °C 1011.7 hPa Calm     92 % 0 mm
06:06 14.2 °C 12.9 °C 1011.7 hPa Calm     92 % 0 mm
06:11 14.1 °C 12.8 °C 1011.7 hPa Calm     92 % 0 mm
06:16 14.1 °C 12.8 °C 1012.1 hPa Calm     92 % 0 mm
06:21 14.1 °C 12.8 °C 1012.1 hPa Calm     92 % 0 mm
06:26 14.1 °C 12.8 °C 1012.1 hPa Calm     92 % 0 mm
06:31 14.2 °C 13.1 °C 1012.1 hPa Calm     93 % 0 mm
06:36 14.4 °C 13.5 °C 1012.1 hPa Calm     94 % 0 mm
06:41 14.7 °C 13.9 °C 1012.1 hPa Calm     95 % 0 mm
06:46 14.9 °C 14.2 °C 1012.1 hPa Calm   3.2 km/h 95 % 0 mm
06:51 15.1 °C 14.3 °C 1012.4 hPa Calm     95 % 0 mm
06:56 15.4 °C 14.6 °C 1012.4 hPa Calm   1.6 km/h 95 % 0 mm
07:01 15.6 °C 14.8 °C 1012.4 hPa SE 1.6 km/h 6.4 km/h 95 % 0 mm
07:06 15.6 °C 14.7 °C 1012.4 hPa Calm   1.9 km/h 94 % 0 mm
07:11 15.8 °C 14.6 °C 1012.4 hPa Calm   3.7 km/h 92 % 0 mm
07:16 16.1 °C 14.8 °C 1012.4 hPa Calm     92 % 0 mm
07:21 16.3 °C 14.6 °C 1012.8 hPa SE 0.3 km/h 1.9 km/h 90 % 0 mm
07:26 16.5 °C 14.7 °C 1012.8 hPa Calm   1.9 km/h 89 % 0 mm
07:31 16.7 °C 14.9 °C 1012.8 hPa SW 2.4 km/h 5.6 km/h 89 % 0 mm
07:36 16.9 °C 14.7 °C 1012.8 hPa Calm     87 % 0 mm
07:41 17.1 °C 14.7 °C 1012.8 hPa SW 1.4 km/h 3.7 km/h 86 % 0 mm
07:46 17.2 °C 15 °C 1012.8 hPa SW 2.4 km/h 5.6 km/h 87 % 0 mm
07:51 17.2 °C 15.2 °C 1012.8 hPa Calm     88 % 0 mm
07:56 17.3 °C 15.5 °C 1012.8 hPa NNE 0.5 km/h 3.7 km/h 89 % 0 mm
08:01 17.4 °C 15.4 °C 1013.1 hPa NNE 0.2 km/h 3.7 km/h 88 % 0 mm
08:06 17.4 °C 15.3 °C 1013.1 hPa NNE 3.1 km/h 5.6 km/h 87 % 0 mm
08:11 17.5 °C 15.3 °C 1013.1 hPa NNE 2.1 km/h 3.7 km/h 87 % 0 mm
08:16 17.6 °C 15.4 °C 1013.1 hPa NNE 1.8 km/h 3.7 km/h 87 % 0 mm
08:21 17.6 °C 15.2 °C 1012.8 hPa NE 2.6 km/h 6.4 km/h 86 % 0 mm
08:27 17.7 °C 15.3 °C 1013.1 hPa NNE 1.3 km/h 5.6 km/h 86 % 0 mm
08:32 17.7 °C 15.3 °C 1013.1 hPa North 4.2 km/h 7.4 km/h 86 % 0 mm
08:37 17.6 °C 15.2 °C 1013.1 hPa NNE 0.5 km/h 3.7 km/h 86 % 0 mm
08:42 17.6 °C 15.2 °C 1013.1 hPa North 3.1 km/h 6.4 km/h 86 % 0 mm
08:47 17.5 °C 15.1 °C 1012.8 hPa North 5.1 km/h 9.3 km/h 86 % 0 mm
08:52 17.4 °C 15.1 °C 1012.8 hPa North 2.4 km/h 6.4 km/h 86 % 0 mm
08:57 17.4 °C 15 °C 1013.1 hPa North 5.6 km/h 9.3 km/h 86 % 0 mm
09:02 17.4 °C 15.2 °C 1013.1 hPa ENE 7.4 km/h 11.1 km/h 87 % 0 mm
09:07 17.4 °C 15.2 °C 1013.1 hPa NNE 3.9 km/h 7.4 km/h 87 % 0 mm
09:12 17.4 °C 15.3 °C 1012.8 hPa ENE 4.5 km/h 7.4 km/h 87 % 0 mm
09:17 17.5 °C 15.3 °C 1012.8 hPa North 4.3 km/h 9.3 km/h 87 % 0 mm
09:23 17.6 °C 15.2 °C 1012.8 hPa ENE 4.2 km/h 7.4 km/h 86 % 0 mm
09:28 17.4 °C 15.1 °C 1012.8 hPa ENE 5 km/h 9.3 km/h 86 % 0 mm
09:33 17.4 °C 15.1 °C 1012.8 hPa NE 8.5 km/h 14.8 km/h 86 % 0 mm
09:38 17.6 °C 15.4 °C 1012.8 hPa North 5 km/h 8 km/h 87 % 0 mm
09:43 17.8 °C 15.4 °C 1012.8 hPa NNE 3.5 km/h 7.4 km/h 86 % 0 mm
09:48 18 °C 15.4 °C 1012.8 hPa NNE 6.8 km/h 9.3 km/h 85 % 0 mm
09:53 18.3 °C 15.7 °C 1012.8 hPa NNE 4.8 km/h 13 km/h 85 % 0 mm
09:58 18.6 °C 15.8 °C 1012.8 hPa North 7.9 km/h 11.3 km/h 84 % 0 mm
10:03 19.1 °C 16.3 °C 1012.8 hPa NNE 3.1 km/h 9.3 km/h 84 % 0 mm
10:08 19.4 °C 16.3 °C 1012.4 hPa NE 2.3 km/h 7.4 km/h 82 % 0 mm
10:13 19.8 °C 16.4 °C 1012.4 hPa NE 5.1 km/h 5.6 km/h 81 % 0 mm
10:18 19.9 °C 16.2 °C 1012.4 hPa NE 4.3 km/h 7.4 km/h 79 % 0 mm
10:23 20.2 °C 16.6 °C 1012.4 hPa ENE 4.8 km/h 7.4 km/h 80 % 0 mm
10:28 20.2 °C 16 °C 1012.4 hPa ENE 2.6 km/h 7.4 km/h 77 % 0 mm
10:33 20.3 °C 16.5 °C 1012.4 hPa ENE 3.5 km/h 7.4 km/h 79 % 0 mm
10:38 20.4 °C 16.5 °C 1012.8 hPa ENE 3.2 km/h 11.3 km/h 78 % 0 mm
10:43 20.3 °C 15.9 °C 1012.4 hPa ENE 7.6 km/h 13 km/h 76 % 0 mm
10:48 20.2 °C 16.2 °C 1012.4 hPa NNE 6.6 km/h 11.1 km/h 78 % 0 mm
10:53 20.4 °C 16.8 °C 1012.4 hPa NE 2.7 km/h 5.6 km/h 80 % 0 mm
10:58 20.7 °C 16.7 °C 1012.4 hPa ENE 2.7 km/h 8 km/h 78 % 0 mm
11:03 20.8 °C 16.8 °C 1012.8 hPa North 6.6 km/h 9.3 km/h 78 % 0 mm
11:08 21.1 °C 16.9 °C 1012.8 hPa ESE 2.9 km/h 9.7 km/h 77 % 0 mm
11:13 21.2 °C 16.2 °C 1012.8 hPa SSE 7.4 km/h 13 km/h 73 % 0 mm
11:18 21.5 °C 16.4 °C 1012.8 hPa SSE 5 km/h 16.7 km/h 73 % 0 mm
11:23 21.7 °C 16.2 °C 1012.4 hPa SSE 8.4 km/h 11.3 km/h 71 % 0 mm
11:28 21.8 °C 16.9 °C 1012.4 hPa SE 1.6 km/h 5.6 km/h 74 % 0 mm
11:33 22 °C 17.4 °C 1012.8 hPa South 1.1 km/h 3.7 km/h 75 % 0 mm
11:38 22.4 °C 17.7 °C 1012.8 hPa SSE 0.6 km/h 3.7 km/h 75 % 0 mm
11:43 22.7 °C 16.7 °C 1012.8 hPa SSE 7.1 km/h 14.5 km/h 69 % 0 mm
11:49 22.7 °C 17.6 °C 1012.8 hPa SE 6.4 km/h 8 km/h 73 % 0 mm
11:54 22.6 °C 16.2 °C 1013.1 hPa SE 10.1 km/h 13 km/h 67 % 0 mm
11:59 22.3 °C 15.6 °C 1013.1 hPa SE 5.8 km/h 14.8 km/h 66 % 0 mm
12:04 22.2 °C 16.3 °C 1013.1 hPa SSE 4 km/h 6.4 km/h 69 % 0 mm
12:09 22.3 °C 16.1 °C 1013.1 hPa South 2.7 km/h 9.3 km/h 68 % 0 mm
12:14 22.4 °C 16.4 °C 1013.1 hPa SSW 1.6 km/h 5.6 km/h 69 % 0 mm
12:19 22.4 °C 15.6 °C 1013.4 hPa SE 6.4 km/h 12.9 km/h 65 % 0 mm
12:24 22.3 °C 15.4 °C 1013.1 hPa WSW 2.1 km/h 7.4 km/h 65 % 0 mm
12:29 22.2 °C 15.7 °C 1013.4 hPa SSE 6 km/h 11.1 km/h 67 % 0 mm
12:34 22 °C 15.3 °C 1013.4 hPa SSE 2.7 km/h 13 km/h 66 % 0 mm
12:39 21.8 °C 15.2 °C 1013.4 hPa SE 6.4 km/h 11.1 km/h 66 % 0 mm
12:44 21.9 °C 16.2 °C 1013.4 hPa SE 6.1 km/h 13 km/h 70 % 0 mm
12:49 21.9 °C 15.2 °C 1013.4 hPa ESE 1.9 km/h 7.4 km/h 66 % 0 mm
12:54 22 °C 15.3 °C 1013.4 hPa SE 8.2 km/h 13 km/h 66 % 0 mm
12:59 22 °C 16.3 °C 1013.4 hPa ESE 1 km/h 5.6 km/h 70 % 0 mm
13:04 22.2 °C 16.3 °C 1013.4 hPa SSE 1.1 km/h 6.4 km/h 69 % 0 mm
13:09 22.3 °C 15.7 °C 1013.4 hPa SE 0.6 km/h 7.4 km/h 66 % 0 mm
13:14 22.4 °C 15.7 °C 1013.4 hPa SE 3.7 km/h 6.4 km/h 66 % 0 mm
13:19 22.4 °C 15.6 °C 1013.4 hPa SSE 2.3 km/h 5.6 km/h 65 % 0 mm
13:24 22.4 °C 15.7 °C 1013.4 hPa SE 4.2 km/h 9.7 km/h 66 % 0 mm
13:29 22.4 °C 16.5 °C 1013.4 hPa South 0.5 km/h 5.6 km/h 69 % 0 mm
13:34 22.4 °C 15.8 °C 1013.4 hPa SE 0.6 km/h 7.4 km/h 66 % 0 mm
13:39 22.4 °C 15.8 °C 1013.4 hPa SE 2.6 km/h 7.4 km/h 66 % 0 mm
13:44 22.4 °C 15 °C 1013.4 hPa SE 8.2 km/h 16.7 km/h 63 % 0 mm
13:50 22.3 °C 16.1 °C 1013.4 hPa ESE 0.2 km/h 9.3 km/h 68 % 0 mm
13:55 22.3 °C 15.6 °C 1013.4 hPa South 5.3 km/h 17.7 km/h 66 % 0 mm
14:00 22.1 °C 15.4 °C 1013.4 hPa SE 7.4 km/h 13 km/h 66 % 0 mm
14:05 21.8 °C 14.9 °C 1013.4 hPa SE 4 km/h 9.3 km/h 65 % 0 mm
14:10 21.6 °C 15 °C 1013.4 hPa SSE 7.7 km/h 16.7 km/h 66 % 0 mm
14:15 21.5 °C 15.6 °C 1013.4 hPa SE 2.6 km/h 16.7 km/h 69 % 0 mm
14:20 21.5 °C 15.6 °C 1013.4 hPa South 1.9 km/h 9.3 km/h 69 % 0 mm
14:25 21.6 °C 14.9 °C 1013.4 hPa SSE 7.1 km/h 14.8 km/h 66 % 0 mm
14:30 21.4 °C 14.6 °C 1013.4 hPa SE 2.9 km/h 9.3 km/h 65 % 0 mm
14:35 21.3 °C 14.2 °C 1013.1 hPa SSE 6.3 km/h 14.8 km/h 64 % 0 mm
14:40 21.2 °C 15 °C 1013.4 hPa SE 1 km/h 8 km/h 68 % 0 mm
14:45 21.2 °C 14.8 °C 1013.1 hPa Calm   1.9 km/h 67 % 0 mm
14:50 21.2 °C 14.6 °C 1013.1 hPa SE 9.7 km/h 14.8 km/h 66 % 0 mm
14:55 21.3 °C 15.3 °C 1012.8 hPa SE 2.6 km/h 5.6 km/h 69 % 0 mm
15:00 21.4 °C 15 °C 1012.8 hPa SSE 1.4 km/h 3.7 km/h 67 % 0 mm
15:05 21.4 °C 15.1 °C 1012.8 hPa SSE 0.5 km/h 3.7 km/h 67 % 0 mm
15:06 21.4 °C 14.6 °C 1012.8 hPa SSE 0.3 km/h 3.7 km/h 65 % 0 mm
15:11 21.6 °C 15.8 °C 1012.8 hPa SSE 0.6 km/h 3.7 km/h 70 % 0 mm
15:16 21.6 °C 14.7 °C 1012.8 hPa SE 3.1 km/h 12.9 km/h 65 % 0 mm
15:21 21.4 °C 14.8 °C 1012.8 hPa SE 5.5 km/h 11.1 km/h 66 % 0 mm
15:26 21.4 °C 14.6 °C 1013.1 hPa SSE 2.1 km/h 7.4 km/h 65 % 0 mm
15:31 21.2 °C 13.3 °C 1012.8 hPa SE 8.4 km/h 14.8 km/h 61 % 0 mm
15:36 20.9 °C 13.9 °C 1012.8 hPa Calm   3.7 km/h 64 % 0 mm
15:41 20.9 °C 14.1 °C 1012.8 hPa South 5.1 km/h 11.1 km/h 65 % 0 mm
15:46 20.7 °C 13.9 °C 1012.8 hPa SE 1 km/h 8 km/h 65 % 0 mm
15:50 20.6 °C 13.7 °C 1012.8 hPa SE 6.1 km/h 11.3 km/h 65 % 0 mm
15:55 20.4 °C 13.4 °C 1012.8 hPa SSE 8.5 km/h 13 km/h 64 % 0 mm
16:00 20.3 °C 13.6 °C 1012.8 hPa SE 7.2 km/h 11.3 km/h 65 % 0 mm
16:05 20.2 °C 13.2 °C 1012.4 hPa SSE 3.1 km/h 14.8 km/h 64 % 0 mm
16:10 20.2 °C 13.4 °C 1012.8 hPa SE 4.8 km/h 11.3 km/h 65 % 0 mm
16:15 20.3 °C 13.7 °C 1012.8 hPa ESE 0.2 km/h 3.7 km/h 66 % 0 mm
16:20 20.3 °C 12.8 °C 1012.8 hPa SE 6.9 km/h 11.1 km/h 62 % 0 mm
16:25 20.3 °C 12.5 °C 1012.8 hPa SSE 7.4 km/h 14.8 km/h 61 % 0 mm
16:30 20.1 °C 11.6 °C 1012.8 hPa SE 2.3 km/h 13 km/h 58 % 0 mm
16:35 19.9 °C 11.9 °C 1012.4 hPa SE 3.7 km/h 5.6 km/h 60 % 0 mm
16:40 19.9 °C 12.4 °C 1012.4 hPa SSE 4.7 km/h 7.4 km/h 62 % 0 mm
16:45 19.9 °C 11.9 °C 1012.4 hPa SE 2.3 km/h 5.6 km/h 60 % 0 mm
16:50 19.8 °C 11.8 °C 1012.4 hPa ESE 5 km/h 13 km/h 60 % 0 mm
16:55 19.7 °C 11.2 °C 1012.8 hPa SE 9.5 km/h 18.5 km/h 58 % 0 mm
17:00 19.6 °C 11.4 °C 1012.8 hPa SE 3.5 km/h 9.7 km/h 59 % 0 mm
17:06 19.6 °C 11.8 °C 1012.8 hPa Calm   9.7 km/h 61 % 0 mm
17:11 19.5 °C 11.8 °C 1012.8 hPa SSE 1.6 km/h 12.9 km/h 61 % 0 mm
17:16 19.4 °C 11.9 °C 1013.1 hPa SE 3.2 km/h 9.7 km/h 62 % 0 mm
17:21 19.3 °C 11.9 °C 1013.1 hPa SE 3.2 km/h 11.3 km/h 62 % 0 mm
17:26 19.3 °C 12.3 °C 1013.1 hPa SSE 1.6 km/h 12.9 km/h 64 % 0 mm
17:31 19.2 °C 12.2 °C 1013.1 hPa SE 3.2 km/h 14.5 km/h 64 % 0 mm
17:36 19.1 °C 11.8 °C 1013.1 hPa SSE 1.8 km/h 7.4 km/h 63 % 0 mm
17:41 19 °C 12.5 °C 1013.4 hPa SSE 0.5 km/h 3.7 km/h 66 % 0 mm
17:46 18.9 °C 12.7 °C 1013.1 hPa SE 2.7 km/h 6.4 km/h 67 % 0 mm
17:51 18.9 °C 12.2 °C 1013.4 hPa SE 1.9 km/h 7.4 km/h 65 % 0 mm
17:56 18.8 °C 11.3 °C 1013.1 hPa SE 8.4 km/h 13 km/h 62 % 0 mm
18:02 18.7 °C 11.5 °C 1013.1 hPa SE 2.4 km/h 9.3 km/h 63 % 0 mm
18:07 18.6 °C 11.9 °C 1013.4 hPa SE 5.8 km/h 9.7 km/h 65 % 0 mm
18:12 18.5 °C 11.6 °C 1013.4 hPa South 7.1 km/h 12.9 km/h 64 % 0 mm
18:17 18.4 °C 11.4 °C 1013.4 hPa SSE 3.5 km/h 7.4 km/h 64 % 0 mm
18:22 18.3 °C 11.3 °C 1013.4 hPa SSE 6.8 km/h 11.1 km/h 64 % 0 mm
18:27 18.2 °C 11.2 °C 1013.1 hPa SE 3.4 km/h 14.8 km/h 64 % 0 mm
18:32 18.1 °C 11.2 °C 1013.1 hPa SE 4.7 km/h 9.3 km/h 64 % 0 mm
18:37 18.1 °C 11.4 °C 1013.1 hPa SE 3.7 km/h 9.7 km/h 65 % 0 mm
18:42 17.9 °C 11.3 °C 1013.1 hPa SE 6.1 km/h 11.1 km/h 65 % 0 mm
18:47 17.9 °C 11.5 °C 1013.1 hPa ESE 5.8 km/h 13 km/h 66 % 0 mm
18:52 17.8 °C 11.2 °C 1013.1 hPa SE 2.4 km/h 5.6 km/h 65 % 0 mm
18:57 17.8 °C 11.1 °C 1013.1 hPa SE 2.4 km/h 7.4 km/h 65 % 0 mm
19:02 17.8 °C 11.3 °C 1013.1 hPa SE 2.9 km/h 6.4 km/h 66 % 0 mm
19:07 17.7 °C 11.2 °C 1013.1 hPa SSE 5.6 km/h 7.4 km/h 66 % 0 mm
19:12 17.6 °C 11.2 °C 1013.4 hPa SE 1.6 km/h 5.6 km/h 66 % 0 mm
19:17 17.6 °C 11.3 °C 1013.4 hPa SE 1.9 km/h 5.6 km/h 67 % 0 mm
19:22 17.5 °C 11.1 °C 1013.1 hPa SE 1 km/h 7.4 km/h 66 % 0 mm
19:27 17.4 °C 11.5 °C 1013.1 hPa SE 0.3 km/h 5.6 km/h 68 % 0 mm
19:32 17.3 °C 11.2 °C 1013.1 hPa SE 5.1 km/h 8 km/h 67 % 0 mm
19:34 17.3 °C 11.4 °C 1013.1 hPa ESE 2.6 km/h 7.4 km/h 68 % 0 mm
19:39 17.2 °C 11.1 °C 1013.1 hPa SE 0.8 km/h 9.3 km/h 67 % 0 mm
19:44 17.1 °C 10.9 °C 1013.4 hPa ESE 3.7 km/h 9.3 km/h 67 % 0 mm
19:49 17.1 °C 10.9 °C 1013.1 hPa SSE 1.1 km/h 7.4 km/h 67 % 0 mm
19:54 17 °C 11.1 °C 1013.1 hPa SE 2.6 km/h 12.9 km/h 68 % 0 mm
19:59 16.9 °C 11.2 °C 1013.1 hPa SE 0.8 km/h 7.4 km/h 69 % 0 mm
20:04 16.8 °C 11.1 °C 1013.1 hPa SE 0.3 km/h 1.9 km/h 69 % 0 mm
20:09 16.8 °C 11.3 °C 1013.1 hPa SE 5.3 km/h 7.4 km/h 70 % 0 mm
20:14 16.7 °C 11.4 °C 1013.1 hPa SE 0.6 km/h 3.7 km/h 71 % 0 mm
20:19 16.6 °C 11.6 °C 1013.1 hPa SE 0.5 km/h 3.7 km/h 72 % 0 mm
20:24 16.6 °C 11.3 °C 1013.1 hPa SE 0.2 km/h 1.9 km/h 71 % 0 mm
20:34 16.4 °C 11.6 °C 1013.1 hPa Calm     73 % 0 mm
20:39 16.3 °C 11.3 °C 1013.1 hPa Calm   5.6 km/h 72 % 0 mm
20:44 16.3 °C 11.4 °C 1013.1 hPa SE 0.2 km/h 5.6 km/h 73 % 0 mm
20:49 16.2 °C 11.4 °C 1012.8 hPa SE 3.2 km/h 7.4 km/h 73 % 0 mm
20:54 16.2 °C 11.3 °C 1012.8 hPa SE 1.3 km/h 5.6 km/h 73 % 0 mm
20:59 16.1 °C 11.4 °C 1012.8 hPa SE 2.3 km/h 6.4 km/h 74 % 0 mm
21:04 16 °C 11.4 °C 1012.8 hPa SSE 0.2 km/h 1.9 km/h 74 % 0 mm
21:09 15.9 °C 11.3 °C 1012.8 hPa SE 3.9 km/h 7.4 km/h 74 % 0 mm
21:14 15.9 °C 11.4 °C 1012.8 hPa Calm   1.9 km/h 75 % 0 mm
21:19 15.8 °C 11.4 °C 1013.1 hPa SE 0.3 km/h 5.6 km/h 75 % 0 mm
21:25 15.8 °C 11.3 °C 1013.1 hPa Calm     75 % 0 mm
21:30 15.7 °C 11.5 °C 1012.8 hPa SE 0.8 km/h 3.2 km/h 76 % 0 mm
21:35 15.7 °C 11.4 °C 1012.8 hPa SE 2.9 km/h 5.6 km/h 76 % 0 mm
21:40 15.6 °C 11.6 °C 1012.8 hPa SE 1 km/h 4.8 km/h 77 % 0 mm
21:45 15.6 °C 11.7 °C 1012.8 hPa Calm   1.9 km/h 78 % 0 mm
21:50 15.5 °C 11.7 °C 1012.8 hPa SE 1.8 km/h 5.6 km/h 78 % 0 mm
21:55 15.4 °C 11.6 °C 1012.8 hPa SE 0.2 km/h 5.6 km/h 78 % 0 mm
22:00 15.4 °C 11.6 °C 1012.8 hPa SSE 0.2 km/h 1.9 km/h 78 % 0 mm
22:05 15.4 °C 11.8 °C 1012.8 hPa Calm     79 % 0 mm
22:10 15.4 °C 11.8 °C 1012.4 hPa Calm     79 % 0 mm
22:15 15.3 °C 11.9 °C 1012.8 hPa Calm     80 % 0 mm
22:20 15.3 °C 11.9 °C 1012.4 hPa SE 1.8 km/h 5.6 km/h 80 % 0 mm
22:25 15.3 °C 11.9 °C 1012.4 hPa Calm   1.9 km/h 80 % 0 mm
22:27 15.3 °C 11.8 °C 1012.4 hPa Calm     80 % 0 mm
22:32 15.3 °C 12.1 °C 1012.4 hPa Calm   1.9 km/h 81 % 0 mm
22:37 15.3 °C 11.8 °C 1012.4 hPa SE 0.2 km/h 1.9 km/h 80 % 0 mm
22:42 15.3 °C 11.8 °C 1012.8 hPa Calm   1.9 km/h 80 % 0 mm
22:47 15.3 °C 12.1 °C 1012.8 hPa SE 1.1 km/h 5.6 km/h 81 % 0 mm
22:52 15.2 °C 11.8 °C 1012.8 hPa Calm   5.6 km/h 80 % 0 mm
22:57 15.2 °C 12 °C 1012.8 hPa ESE 1.1 km/h 6.4 km/h 81 % 0 mm
23:02 15.2 °C 11.8 °C 1012.8 hPa SE 2.9 km/h 9.3 km/h 80 % 0 mm
23:07 15.2 °C 11.8 °C 1012.4 hPa SSE 0.6 km/h 7.4 km/h 80 % 0 mm
23:12 15.2 °C 11.8 °C 1012.4 hPa SE 1.6 km/h 5.6 km/h 80 % 0 mm
23:17 15.2 °C 11.8 °C 1012.4 hPa SE 0.2 km/h 1.9 km/h 80 % 0 mm
23:22 15.2 °C 11.9 °C 1012.4 hPa SE 1.3 km/h 6.4 km/h 81 % 0 mm
23:27 15.2 °C 11.9 °C 1012.4 hPa Calm     81 % 0 mm
23:32 15.2 °C 11.9 °C 1012.4 hPa Calm     81 % 0 mm
23:37 15.2 °C 11.9 °C 1012.4 hPa SSE 0.2 km/h 1.9 km/h 81 % 0 mm
23:42 15.2 °C 11.9 °C 1012.4 hPa Calm   1.9 km/h 81 % 0 mm
23:47 15.1 °C 12.1 °C 1012.1 hPa Calm     82 % 0 mm
23:49 15.2 °C 12.1 °C 1012.1 hPa Calm     82 % 0 mm
23:54 15.1 °C 11.9 °C 1012.1 hPa SSE 0.2 km/h 1.9 km/h 81 % 0 mm
23:59 15.1 °C 11.9 °C 1012.1 hPa Calm   1.9 km/h 81 % 0 mm
Crab Meadow Weather
Compliments of Weather Underground - 3 mb

Script developed by  Jim McMurry - jmcmurry@mwt.net Adapted for the template by  Wim van der Kuil - Leuven-Template.eu

Humidity: Humidity is the amount of water vapor in the air. The term "humidity" refers to relative humidity. Relative humidity is defined as the amount of water vapor in a sample of air compared to the maximum amount of water vapor the air can hold at any specific temperature in a form of 0 to 100%. Relative humidity is important in forecasting weather. Humidity indicates the likelihood of precipitation, dew, or fog. High humidity makes people feel hotter outside in the summer because it reduces the effectiveness of sweating to cool the body by preventing the evaporation of perspiration from the skin.